FW4298 Weather Reports


Display with metric or nautical units.
time (UTC)temp
F
wind
direction
speed
MPH
gust
MPH
rain 1hr
in
rain 24hr
in
rain mn
in
humidity
%
barometer
mb
20260504211320 82 182 10.0 19.0 0.00 0.00 0.00 66 1011.5
20260504210820 82 186 9.0 19.0 0.00 0.00 0.00 64 1011.5
20260504210544 82 172 8.0 17.0 0.00 0.00 0.00 65 1011.7
20260504205820 82 130 9.0 17.0 0.00 0.00 0.00 67 1011.6
20260504205320 82 169 9.0 18.0 0.00 0.00 0.00 67 1011.8
20260504204820 82 171 9.0 18.0 0.00 0.00 0.00 66 1011.8
20260504204320 81 192 9.0 16.0 0.00 0.00 0.00 67 1012.0
20260504203820 81 169 8.0 17.0 0.00 0.00 0.00 68 1012.1
20260504203319 81 125 9.0 20.0 0.00 0.00 0.00 65 1012.1
20260504202818 82 153 9.0 20.0 0.00 0.00 0.00 65 1012.1
20260504202318 82 165 8.0 16.0 0.00 0.00 0.00 66 1012.1
20260504201819 81 163 7.0 16.0 0.00 0.00 0.00 67 1012.3
20260504201559 81 192 7.0 17.0 0.00 0.00 0.00 67 1012.4
20260504200818 81 211 7.0 17.0 0.00 0.00 0.00 66 1012.5
20260504200316 81 152 8.0 16.0 0.00 0.00 0.00 66 1012.6
20260504195816 81 113 8.0 19.0 0.00 0.00 0.00 67 1012.8
20260504195310 81 201 7.0 19.0 0.00 0.00 0.00 67 1012.7
20260504195027 80 176 8.0 20.0 0.00 0.00 0.00 66 1012.9
20260504194304 81 182 7.0 20.0 0.00 0.00 0.00 66 1013.2
20260504193804 81 189 8.0 17.0 0.00 0.00 0.00 67 1013.2
20260504193532 80 174 8.0 17.0 0.00 0.00 0.00 67 1013.4
20260504192804 80 217 7.0 17.0 0.00 0.00 0.00 68 1013.3
20260504192304 80 180 8.0 17.0 0.00 0.00 0.00 69 1013.4
20260504191805 79 178 8.0 18.0 0.00 0.00 0.00 69 1013.6
20260504191526 79 172 9.0 18.0 0.00 0.00 0.00 69 1013.7
20260504190805 79 186 8.0 17.0 0.00 0.00 0.00 68 1013.7
20260504190304 79 168 8.0 18.0 0.00 0.00 0.00 69 1013.9
20260504185804 78 179 7.0 18.0 0.00 0.00 0.00 69 1014.0
20260504185304 78 182 6.0 15.0 0.00 0.00 0.00 69 1014.1
20260504184804 78 198 7.0 18.0 0.00 0.00 0.00 69 1014.0
20260504184304 78 197 7.0 18.0 0.00 0.00 0.00 70 1014.1
20260504184028 78 240 7.0 15.0 0.00 0.00 0.00 69 1014.0
20260504183304 78 204 7.0 13.0 0.00 0.00 0.00 70 1014.1
20260504182804 78 167 8.0 18.0 0.00 0.00 0.00 70 1014.2
20260504182304 78 217 8.0 18.0 0.00 0.00 0.00 70 1014.4
20260504182255 77 163 9.0 16.0 0.00 0.00 0.00 70 1014.6
20260504181305 77 207 9.0 20.0 0.00 0.00 0.00 71 1014.5
20260504180804 77 172 8.0 20.0 0.00 0.00 0.00 71 1014.7
20260504180305 77 162 8.0 16.0 0.00 0.00 0.00 72 1014.7
20260504180040 77 179 9.0 18.0 0.00 0.00 0.00 71 1014.7
20260504175527 76 192 9.0 18.0 0.00 0.00 0.00 72 1014.8
20260504174804 76 173 8.0 17.0 0.00 0.00 0.00 74 1014.8
20260504174305 75 163 8.0 17.0 0.00 0.00 0.00 74 1014.8
20260504174027 75 190 9.0 20.0 0.00 0.00 0.00 74 1015.0
20260504173746 74 196 9.0 21.0 0.00 0.00 0.00 76 1015.0
20260504172803 74 190 10.0 21.0 0.00 0.00 0.00 74 1015.2
20260504172304 74 178 10.0 20.0 0.00 0.00 0.00 75 1015.2
20260504172020 74 180 8.0 20.0 0.00 0.00 0.00 75 1015.4
20260504171252 74 150 7.0 17.0 0.00 0.00 0.00 76 1015.4
20260504170746 74 182 8.0 20.0 0.00 0.00 0.00 75 1015.7
20260504170725 74 193 8.0 20.0 0.00 0.00 0.00 75 1015.7
20260504160234 72 173 9.0 21.0 0.00 0.00 0.00 77 1015.7
20260504150731 70 179 8.0 19.0 0.00 0.00 0.00 78 1016.0
20260504150231 70 219 9.0 19.0 0.00 0.00 0.00 78 1016.1
20260504141231 68 182 7.0 16.0 0.00 0.00 0.00 81 1016.0
20260504140946 67 190 7.0 17.0 0.00 0.00 0.00 82 1016.0
20260504140231 67 168 7.0 17.0 0.00 0.00 0.00 81 1016.0
20260504130731 63 163 6.0 14.0 0.00 0.00 0.00 86 1016.2
20260504130230 62 198 6.0 14.0 0.00 0.00 0.00 86 1016.2
20260504120209 59 213 5.0 14.0 0.00 0.00 0.00 90 1015.4
20260504110704 60 135 3.0 9.0 0.00 0.00 0.00 88 1015.5
20260504110427 60 148 3.0 9.0 0.00 0.00 0.00 87 1015.7
20260504100200 61 215 5.0 14.0 0.00 0.00 0.00 85 1016.1
20260504081640 62 159 6.0 16.0 0.00 0.00 0.00 82 1016.2
20260504081138 62 165 6.0 16.0 0.00 0.00 0.00 82 1016.2
20260504080638 62 175 6.0 14.0 0.00 0.00 0.00 81 1016.5
20260504080405 62 185 6.0 14.0 0.00 0.00 0.00 81 1016.5
20260504070132 63 185 6.0 11.0 0.00 0.00 0.00 78 1017.6
20260504050603 64 182 6.0 12.0 0.00 0.00 0.00 70 1018.7
20260504045603 63 151 5.0 13.0 0.00 0.00 0.00 71 1018.7
20260504045102 63 143 4.0 11.0 0.00 0.00 0.00 70 1018.6
20260504044602 62 156 3.0 8.0 0.00 0.00 0.00 70 1018.7
20260504044103 62 165 3.0 7.0 0.00 0.00 0.00 70 1018.7
20260504043602 62 153 3.0 7.0 0.00 0.00 0.00 70 1018.8
20260504043103 62 178 3.0 7.0 0.00 0.00 0.00 70 1018.9
20260504042826 62 160 3.0 8.0 0.00 0.00 0.00 71 1018.9
20260504042102 62 164 3.0 8.0 0.00 0.00 0.00 71 1018.9
20260504041603 61 149 1.0 5.0 0.00 0.00 0.00 71 1018.9
20260504041102 61 164 0.0 4.0 0.00 0.00 0.00 72 1018.8
20260504040603 61 164 1.0 4.0 0.00 0.00 0.00 72 1018.9
20260504040324 61 164 1.0 4.0 0.00 0.00 0.00 71 1018.9
20260504035842 62 164 1.0 4.0 0.00 0.00 0.00 71 1018.9
20260504035548 62 164 1.0 4.0 0.00 0.00 0.00 71 1018.9
20260504034828 62 164 1.0 2.0 0.00 0.00 0.00 70 1019.0
20260504034102 63 164 1.0 2.0 0.00 0.00 0.00 70 1019.0
20260504033603 63 164 1.0 2.0 0.00 0.00 0.00 68 1019.0
20260504033102 64 164 1.0 2.0 0.00 0.00 0.00 67 1019.0
20260504032603 64 164 1.0 4.0 0.00 0.00 0.00 66 1019.0
20260504032342 64 164 2.0 5.0 0.00 0.00 0.00 66 1018.9
20260504031603 64 164 2.0 5.0 0.00 0.00 0.00 65 1018.7
20260504031103 64 164 2.0 4.0 0.00 0.00 0.00 65 1018.8
20260504030602 65 164 2.0 5.0 0.00 0.00 0.00 65 1018.9
20260504030326 65 163 2.0 5.0 0.00 0.00 0.00 65 1018.9
20260504025603 65 165 2.0 6.0 0.00 0.00 0.00 64 1019.0
20260504025328 65 164 2.0 6.0 0.00 0.00 0.00 64 1019.0
20260504024608 65 157 2.0 5.0 0.00 0.00 0.00 64 1018.9
20260504024106 65 158 2.0 5.0 0.00 0.00 0.00 63 1018.9
20260504023554 65 159 1.0 5.0 0.00 0.00 0.00 64 1019.0
20260504023048 66 168 1.0 3.0 0.00 0.00 0.00 62 1019.0
20260504022541 66 168 1.0 5.0 0.00 0.00 0.00 62 1019.0
20260504022037 66 168 2.0 5.0 0.00 0.00 0.00 61 1018.7
20260504022031 66 171 1.0 4.0 0.00 0.00 0.00 60 1018.7
20260504021800 67 172 2.0 4.0 0.00 0.00 0.00 60 1018.8
20260504020535 67 170 2.0 5.0 0.00 0.00 0.00 59 1018.9
20260504020034 67 174 2.0 5.0 0.00 0.00 0.00 58 1018.9
20260504015541 68 157 2.0 5.0 0.00 0.00 0.00 58 1018.7
20260504015037 68 156 1.0 4.0 0.00 0.00 0.00 57 1018.5
20260504014805 68 157 1.0 5.0 0.00 0.00 0.00 57 1018.6
20260504014035 69 157 2.0 5.0 0.00 0.00 0.00 56 1018.4
20260504013533 69 153 2.0 5.0 0.00 0.00 0.00 56 1018.4
20260504013030 69 154 2.0 5.0 0.00 0.00 0.00 55 1018.3
20260504012530 70 165 2.0 5.0 0.00 0.00 0.00 55 1018.4
20260504012031 70 155 2.0 6.0 0.00 0.00 0.00 55 1018.2
20260504011530 70 156 2.0 6.0 0.00 0.00 0.00 54 1018.2
20260504011030 71 157 2.0 7.0 0.00 0.00 0.00 54 1018.3
20260504010530 71 160 2.0 7.0 0.00 0.00 0.00 54 1018.3
20260504010030 71 155 2.0 8.0 0.00 0.00 0.00 53 1018.4
20260504005530 72 153 2.0 8.0 0.00 0.00 0.00 53 1018.3
20260504005031 72 159 2.0 8.0 0.00 0.00 0.00 53 1018.3
20260504004530 72 145 3.0 8.0 0.00 0.00 0.00 52 1018.3
20260504004031 73 161 4.0 11.0 0.00 0.00 0.00 50 1018.2
20260504003530 73 170 5.0 11.0 0.00 0.00 0.00 50 1018.2
20260504003031 73 166 4.0 9.0 0.00 0.00 0.00 50 1018.2
20260504002530 74 173 4.0 11.0 0.00 0.00 0.00 50 1018.3
20260504002506 74 155 4.0 11.0 0.00 0.00 0.00 49 1018.4
20260504002500 74 167 4.0 8.0 0.00 0.00 0.00 48 1018.3
20260504001031 74 154 5.0 11.0 0.00 0.00 0.00 48 1018.4
20260504000530 74 169 5.0 11.0 0.00 0.00 0.00 48 1018.5
20260504000031 74 160 5.0 11.0 0.00 0.00 0.00 47 1018.6
20260503235530 75 181 5.0 11.0 0.00 0.00 0.00 49 1018.7
20260503235030 75 178 4.0 11.0 0.00 0.00 0.00 48 1019.0
20260503235012 75 158 4.0 8.0 0.00 0.00 0.00 48 1018.9
20260503234031 76 178 4.0 9.0 0.00 0.00 0.00 47 1018.9
20260503233528 76 163 5.0 11.0 0.00 0.00 0.00 48 1018.8
20260503233255 76 144 5.0 11.0 0.00 0.00 0.00 47 1018.9
20260503232515 76 165 4.0 9.0 0.00 0.00 0.00 47 1019.0
20260503232010 76 155 4.0 8.0 0.00 0.00 0.00 47 1019.0
20260503231505 76 166 4.0 8.0 0.00 0.00 0.00 46 1019.0
20260503231006 76 146 4.0 12.0 0.00 0.00 0.00 44 1019.0
20260503230506 77 171 4.0 12.0 0.00 0.00 0.00 44 1018.9
20260503230238 77 166 4.0 12.0 0.00 0.00 0.00 44 1018.8
20260503225506 78 200 6.0 15.0 0.00 0.00 0.00 42 1018.7
20260503225005 78 182 6.0 15.0 0.00 0.00 0.00 44 1019.0
20260503224503 78 171 6.0 17.0 0.00 0.00 0.00 43 1019.1
20260503224004 78 180 7.0 17.0 0.00 0.00 0.00 44 1019.0
20260503223504 78 175 7.0 13.0 0.00 0.00 0.00 45 1019.0
20260503223004 78 146 7.0 14.0 0.00 0.00 0.00 43 1019.2
20260503222734 78 207 7.0 14.0 0.00 0.00 0.00 42 1019.2
20260503222233 78 173 6.0 12.0 0.00 0.00 0.00 43 1019.3
20260503221504 78 202 6.0 14.0 0.00 0.00 0.00 42 1019.3
20260503221004 78 185 6.0 14.0 0.00 0.00 0.00 41 1019.4
20260503220504 79 201 6.0 14.0 0.00 0.00 0.00 41 1019.5
20260503220004 78 159 6.0 13.0 0.00 0.00 0.00 43 1019.5
20260503215504 78 161 6.0 14.0 0.00 0.00 0.00 44 1019.6
20260503215001 78 155 6.0 14.0 0.00 0.00 0.00 44 1019.5
20260503214455 78 172 7.0 17.0 0.00 0.00 0.00 42 1019.7
20260503213949 78 196 6.0 17.0 0.00 0.00 0.00 44 1019.7
20260503213450 79 182 6.0 16.0 0.00 0.00 0.00 42 1019.9
20260503212950 79 161 5.0 16.0 0.00 0.00 0.00 44 1020.2
20260503212450 79 164 5.0 12.0 0.00 0.00 0.00 44 1020.2
20260503212218 78 167 6.0 14.0 0.00 0.00 0.00 44 1020.2
20260503211447 78 176 6.0 14.0 0.00 0.00 0.00 44 1020.4